SCP
0 0 0 0 0 0 0 0 0 0 0 -0 0 -0 -0 0 0 0 -0 -0 0 -0 -0 -0 -0 -0 -1 -0 -0 -0 -0 -0 -0 -0 -0 -0 -0 -0 -0 -0 -0 -0 -0 -0 0 0 0 0 0
0 0 0 0 0 0 0 0 0 0 0 -0 0 0 0 0 0 0 -0 -0 0 0 0 -0 -0 -0 -0 -0 -0 -0 -0 -0 -0 -0 -0 -0 -0 -0 -0 -0 -0 -0 -0 0 0 0 0 0 0
0 0 0 0 0 0 0 0 0 0 0 0 0 0 0 0 0 0 -0 0 0 0 0 0 -0 -0 -0 -0 -0 -0 -0 -0 -0 -0 -0 0 -0 -0 -0 -0 -0 -0 0 0 0 0 0 0 0
0 0 0 0 0 0 0 0 0 0 0 0 0 0 0 0 0 0 0 0 1 0 0 0 -0 -0 -0 -0 -0 -0 -0 -0 -0 -0 -0 -0 0 0 -0 -0 0 0 0 0 0 0 0 0 0
0 0 0 0 0 0 0 0 0 0 0 0 0 0 0 0 0 1 1 0 0 0 1 1 0 0 -0 -0 -0 -0 -0 -0 -0 -0 -0 -0 -0 0 -0 0 0 0 0 0 0 0 0 0 0
0 0 0 0 0 0 0 0 0 0 0 0 0 0 0 0 0 -0 0 0 -0 0 1 1 1 0 0 0 -0 -0 -0 -0 -0 -0 -0 -0 -0 -0 0 0 0 0 0 0 0 0 0 0 0
0 0 0 0 0 0 0 0 0 0 0 0 0 0 0 0 0 -0 0 0 0 0 1 1 1 1 1 0 0 0 -0 -0 -0 0 -0 -0 -0 -0 0 0 0 0 0 0 0 0 0 0 0
0 0 0 0 0 0 0 0 -0 0 0 0 0 0 0 0 0 1 2 2 1 1 0 1 1 1 1 1 1 0 0 0 0 0 0 0 0 0 0 0 0 0 0 0 0 0 0 0 0
0 0 0 0 0 0 0 0 0 -0 0 0 0 0 0 0 0 1 2 2 2 1 1 1 1 1 2 1 1 1 0 0 0 0 0 0 0 0 0 0 0 0 0 0 0 0 0 0 0
0 0 0 0 0 0 0 0 0 0 0 0 0 0 0 0 0 0 0 1 1 1 1 1 1 1 1 2 2 1 1 1 1 1 1 0 0 0 0 0 0 0 0 0 0 0 0 0 0
0 0 0 0 0 0 0 0 0 0 0 0 0 0 0 0 0 0 0 0 1 2 2 1 2 2 2 2 2 2 2 1 1 1 1 0 0 0 1 0 0 0 0 0 0 0 0 0 0
0 0 0 0 0 0 0 0 0 0 0 0 0 0 0 0 0 0 0 0 0 1 1 2 2 2 2 2 2 2 2 2 1 1 0 0 0 0 0 0 0 0 0 0 0 0 0 0 0
0 0 0 0 0 0 0 0 0 0 0 0 0 0 0 0 0 0 0 0 0 0 0 1 2 2 2 2 2 2 2 1 1 1 0 0 0 0 0 0 0 0 0 0 0 0 0 0 0
0 0 0 0 0 0 0 0 0 0 0 0 0 0 0 0 0 0 0 0 0 0 0 1 2 2 2 2 2 2 2 2 1 1 1 0 0 0 0 0 0 0 0 0 0 0 0 0 0
0 0 0 0 0 0 0 0 0 -0 -0 -0 0 0 0 0 0 0 0 0 0 0 0 2 2 2 2 2 2 2 2 2 1 1 1 1 0 0 0 0 0 0 0 0 0 0 0 0 0
0 0 0 0 0 0 0 0 -0 -0 -0 -0 -0 -0 0 0 0 0 0 0 0 0 0 0 3 3 2 2 3 2 2 2 2 1 1 1 0 0 0 0 0 0 0 0 0 0 0 0 0
0 0 0 0 0 0 0 0 -0 0 -0 -0 -0 -0 -0 -0 0 0 0 0 0 0 0 0 0 4 3 2 3 3 2 2 2 2 1 1 0 0 0 0 0 0 0 0 0 0 0 0 0
0 0 0 0 0 0 0 0 0 0 0 -0 -0 -0 -0 -0 0 0 0 0 0 0 0 0 0 1 4 4 4 3 2 1 1 1 2 1 1 0 0 0 0 0 0 0 0 0 0 0 0
0 0 0 0 0 0 0 0 0 0 0 -0 -0 -0 0 0 0 0 0 0 0 0 0 0 0 0 3 5 3 3 3 2 1 1 1 1 2 1 0 0 0 0 0 0 0 0 0 0 0
0 0 0 0 0 0 0 0 0 0 0 0 0 0 0 0 0 0 0 0 0 0 0 0 0 0 1 3 4 5 5 3 3 2 2 1 1 1 1 0 0 0 0 0 0 0 0 0 0
0 0 0 0 0 0 0 0 0 0 0 0 0 0 0 0 0 0 0 0 0 0 0 0 0 0 0 3 5 4 4 2 2 2 2 1 1 1 1 1 0 0 0 0 0 0 0 0 0
0 0 0 0 0 0 0 0 0 0 0 0 0 0 0 0 0 0 0 0 0 0 0 0 0 0 0 3 4 4 4 3 3 3 2 1 1 1 0 0 0 0 0 0 0 0 0 0 0
0 0 0 0 0 0 0 0 0 0 0 0 0 0 0 0 0 0 0 0 0 0 0 0 0 0 0 0 2 4 3 2 2 3 2 1 1 1 1 1 0 0 0 0 0 0 0 0 0
0 0 0 0 0 0 0 0 0 0 0 0 0 0 0 0 0 0 0 0 0 0 0 0 0 0 0 0 0 1 2 3 2 2 2 1 1 1 1 1 0 0 0 0 0 0 0 0 0
0 0 0 0 0 0 0 0 0 0 0 0 0 0 0 0 -0 0 0 0 0 0 0 0 0 0 0 0 0 1 1 2 2 2 1 1 1 1 1 1 1 1 0 0 0 0 0 0 0
0 0 0 0 0 0 0 0 0 0 0 0 0 0 0 0 -0 -0 -0 -0 0 0 0 0 0 0 0 -0 0 0 1 1 2 2 2 1 1 1 1 1 1 1 0 0 0 0 0 0 0
0 0 0 0 0 0 0 0 0 0 0 0 0 0 0 -0 -0 -0 -0 -0 -0 -0 0 0 0 0 0 0 0 0 0 1 0 3 2 1 0 0 0 1 1 1 0 0 0 0 0 0 0
0 0 0 0 0 0 0 0 0 0 0 0 -0 -0 -0 -0 -0 -0 -0 -0 -0 -0 -0 -0 -0 -0 0 0 0 0 1 0 1 1 1 0 0 0 0 1 1 0 0 0 0 0 0 0 0
0 0 0 0 0 0 0 0 0 0 -0 0 0 0 0 -0 -0 -0 -0 -0 -0 -0 -0 -0 -0 0 0 0 0 0 1 1 1 1 1 0 0 0 0 1 0 0 0 0 0 0 0 0 0
0 0 0 0 0 0 0 0 0 0 0 0 0 0 0 -0 -0 -0 -0 -0 -0 -0 0 0 0 0 0 0 0 -0 0 1 1 1 1 1 0 0 0 1 1 0 0 0 0 0 0 0 0
Wind_Speed_500mb
7 8 10 6 8 8 6 11 8 18 13 3 15 19 17 15 1 5 14 15 17 28 46 44 39 35 34 31 28 28 33 37 41 42 41 38 34 33 35 38 34 31 27 24 25 24 23 20 17
6 6 5 7 9 6 10 11 16 10 18 22 30 23 18 6 17 18 11 19 20 33 47 43 41 38 36 34 31 28 30 35 37 41 43 42 40 39 41 43 35 28 25 24 23 22 21 17 14
9 6 6 8 7 6 5 16 31 32 30 23 7 17 10 7 11 11 11 18 21 35 43 43 40 39 36 33 32 31 30 33 37 39 42 45 46 45 47 44 37 29 26 25 21 19 19 17 14
7 5 10 8 5 4 6 17 27 17 15 19 20 11 13 9 4 9 12 11 17 32 38 43 38 37 35 33 33 32 30 31 36 38 40 42 45 47 50 46 40 32 27 25 20 17 17 17 15
7 6 8 7 3 4 2 22 42 17 10 34 8 8 14 27 21 15 12 12 10 20 23 37 37 36 36 34 32 32 31 29 34 37 38 40 43 48 51 46 41 35 31 25 18 16 15 16 14
6 5 9 3 7 10 7 23 43 25 35 33 30 13 6 16 16 21 17 15 15 7 8 19 34 35 36 35 32 33 33 31 32 37 38 40 42 45 48 46 42 37 33 26 19 17 13 13 12
11 8 6 3 8 6 8 15 18 15 28 29 9 7 8 10 10 17 8 6 10 7 4 9 27 36 36 37 37 36 37 36 33 36 39 41 43 45 47 46 43 39 34 27 21 17 14 11 10
4 8 7 4 3 6 8 9 12 17 7 16 22 7 7 19 9 8 10 7 7 9 6 5 15 33 42 42 42 40 39 39 37 36 39 41 43 45 45 44 43 40 35 29 23 19 15 11 10
3 9 3 6 8 11 11 10 9 9 21 17 17 14 16 15 16 13 15 19 21 18 16 12 12 20 36 46 44 44 42 43 42 39 40 42 45 46 46 45 42 40 35 31 26 20 17 12 13
10 7 11 8 4 5 14 10 24 9 16 20 38 19 21 27 24 15 6 15 30 29 26 22 19 19 23 42 48 46 48 49 48 47 44 43 45 46 47 46 43 40 36 32 27 23 20 15 15
4 6 7 5 9 30 11 12 12 7 19 48 41 50 40 32 33 28 24 19 18 25 33 33 29 28 28 33 46 52 52 54 54 52 49 47 47 48 49 48 47 44 40 36 31 27 22 19 18
5 3 6 13 34 31 14 19 12 8 29 50 55 55 48 41 29 27 27 33 29 29 26 30 40 37 36 37 42 50 59 60 60 58 54 54 52 51 50 51 49 47 43 38 34 30 26 24 22
5 9 34 41 42 36 19 23 10 10 47 43 41 41 36 37 45 42 42 44 49 40 39 31 31 39 41 44 39 45 57 65 64 62 60 59 57 54 52 53 51 49 44 41 38 34 30 27 26
11 22 31 29 29 12 10 14 9 22 38 47 48 46 41 40 38 38 39 47 50 53 42 42 38 39 43 45 45 42 43 60 62 62 62 61 59 58 56 56 54 51 47 43 40 36 31 27 26
12 14 19 10 8 7 16 16 14 19 40 47 58 62 62 62 58 51 48 48 43 54 54 49 44 49 55 49 41 43 42 46 60 61 61 62 62 61 59 58 57 52 48 44 42 41 37 32 27
11 8 9 13 15 7 11 17 10 16 34 41 50 58 61 62 61 59 53 52 55 53 56 61 53 48 57 58 50 49 46 52 53 57 58 61 63 63 63 61 58 50 48 43 41 46 41 36 32
12 8 9 17 10 8 4 17 14 27 26 44 54 57 61 65 66 61 56 55 51 55 63 60 67 58 54 64 63 57 53 54 57 61 60 56 60 66 67 66 61 53 46 44 39 41 39 36 31
14 7 11 13 13 12 14 23 6 30 34 45 50 56 49 52 60 62 67 64 56 56 57 57 62 66 62 54 65 67 64 64 60 63 63 61 62 63 69 70 66 60 51 48 43 40 39 36 28
10 8 15 10 18 6 14 22 8 25 28 35 43 42 47 44 42 46 54 54 56 49 44 58 63 66 71 67 65 69 70 67 60 64 59 63 68 62 60 70 73 67 62 54 51 46 44 41 35
8 5 10 10 9 10 20 38 14 12 15 32 12 31 39 50 45 46 46 32 41 44 50 59 58 70 73 77 69 71 76 74 66 61 62 63 65 75 67 66 74 75 68 60 59 52 52 52 48
5 2 10 15 9 12 12 35 11 10 7 9 14 28 37 37 49 53 48 46 24 21 30 41 65 60 70 80 77 74 76 73 65 65 64 64 76 78 84 76 76 73 75 67 65 60 59 63 56
8 5 10 19 13 10 6 28 5 3 8 6 22 26 37 40 47 50 48 48 52 54 46 36 34 41 59 76 79 78 77 77 75 68 67 64 64 78 86 87 84 84 78 75 73 63 65 64 60
11 10 11 19 10 6 10 5 11 7 5 10 16 13 29 35 38 46 52 56 54 50 52 51 37 27 42 71 84 81 82 77 72 72 66 57 59 67 76 88 84 83 78 83 74 73 73 72 62
11 9 12 9 5 3 5 7 11 8 8 9 8 20 15 27 34 36 41 47 49 51 47 45 46 42 30 50 79 89 85 79 80 78 66 61 64 67 76 74 88 85 88 92 82 78 73 72 61
19 13 9 11 8 9 7 8 18 13 15 11 8 13 10 13 29 43 53 59 55 55 58 57 54 47 45 37 46 72 95 81 71 78 70 59 61 70 67 69 72 78 92 93 96 78 71 68 63
4 11 9 10 6 11 10 12 12 16 14 13 10 6 5 22 31 40 51 61 67 66 58 59 62 53 54 56 39 49 73 94 75 68 62 64 55 57 56 53 65 66 80 87 54 64 59 69 64
5 1 6 3 4 7 9 13 16 11 17 17 23 11 19 23 38 50 64 71 77 82 82 72 68 60 47 52 48 45 58 78 80 70 70 47 42 47 50 53 59 54 70 67 60 65 66 65 61
6 7 1 4 7 9 9 11 15 13 17 17 14 19 27 36 49 61 70 87 105 102 92 85 71 63 51 47 47 36 40 61 58 48 32 35 43 44 45 46 52 54 66 69 69 90 86 74 64
5 4 3 5 7 6 8 12 10 23 25 14 18 26 29 44 55 64 83 111 114 109 100 79 68 53 48 34 47 42 38 35 51 38 34 35 39 37 38 40 44 43 51 67 81 77 77 82 70
12 15 11 8 11 10 11 28 23 18 7 17 39 38 41 52 61 69 102 102 88 88 82 67 50 45 43 30 34 34 21 21 36 47 35 26 29 33 34 34 34 38 54 61 74 72 75 70 67
Wind_Direction_500mb
344 310 333 22 61 60 282 273 322 344 354 300 85 122 129 54 9 195 140 155 149 163 172 172 174 172 176 174 166 158 164 171 173 175 175 175 174 169 169 169 165 160 156 149 142 136 133 137 132
17 18 34 66 81 62 284 310 328 275 327 107 80 80 64 64 93 115 121 121 153 167 176 176 176 177 179 177 174 170 167 171 175 177 179 180 179 177 176 174 171 164 157 150 147 141 139 146 148
23 44 55 84 104 139 313 329 308 290 315 281 91 74 84 96 82 139 126 127 133 170 179 178 179 182 183 179 178 178 175 175 178 180 180 180 180 179 178 177 175 169 163 161 155 153 152 158 175
10 54 63 80 117 225 13 314 326 308 39 19 105 58 70 88 32 145 104 128 133 167 180 181 184 185 188 186 183 182 181 180 181 183 182 182 180 178 179 181 179 173 166 163 164 166 166 171 187
54 64 62 73 296 282 280 358 9 1 61 38 80 39 83 91 78 60 54 95 144 164 180 188 187 189 193 195 191 189 187 184 184 184 185 185 183 182 184 186 185 180 174 176 174 177 178 176 192
69 74 62 78 319 288 309 19 17 12 14 37 65 67 65 109 73 54 38 79 135 140 161 197 201 197 199 201 203 198 194 192 188 188 189 191 190 189 191 193 192 189 191 192 192 196 191 184 193
105 77 152 138 332 12 325 15 25 350 13 3 41 81 112 97 26 7 11 71 134 137 162 201 211 213 209 208 208 209 203 198 196 192 193 196 198 197 199 199 198 199 201 203 206 206 205 189 195
76 87 45 2 47 291 330 9 19 16 0 12 27 16 31 17 338 269 234 219 227 195 194 232 222 225 223 217 213 212 211 205 203 201 199 200 203 205 204 205 204 206 207 210 212 214 214 199 201
126 60 38 310 28 275 301 352 4 344 342 339 346 332 342 4 353 5 232 222 219 229 224 232 241 236 234 225 221 217 214 213 209 208 206 205 208 208 208 209 209 210 210 211 213 220 217 209 212
71 96 216 224 276 330 327 330 322 338 316 320 329 335 338 326 326 330 335 257 241 236 244 236 244 248 239 229 226 225 222 217 214 212 211 211 212 213 213 213 213 213 213 214 219 222 218 212 213
1 136 210 300 21 346 311 303 313 328 320 314 311 312 313 314 316 301 300 292 285 264 254 268 251 249 241 237 232 232 230 225 220 217 216 216 217 216 216 217 216 215 215 217 223 225 223 210 210
20 9 65 313 329 338 320 312 291 248 298 320 313 306 298 291 311 310 302 299 298 280 281 269 256 249 245 243 239 241 236 232 226 222 219 219 220 220 221 222 222 223 222 223 227 226 224 214 210
52 323 325 324 323 323 328 336 315 324 359 349 346 342 319 300 303 294 288 288 291 285 277 275 249 251 250 248 249 252 247 235 230 227 225 223 223 226 226 227 226 228 227 228 229 228 226 222 220
313 303 299 311 319 315 13 316 21 324 0 353 353 348 340 333 329 319 303 290 288 271 283 280 245 243 254 251 252 253 258 240 235 232 232 230 228 230 232 232 230 230 230 230 229 229 228 231 227
315 326 335 3 9 301 357 330 320 332 343 339 338 333 329 321 318 311 305 304 296 270 272 270 264 242 239 247 246 250 252 246 237 236 237 236 234 234 233 237 235 234 233 232 230 225 222 217 214
360 47 4 294 330 320 66 277 263 322 330 320 331 330 322 319 314 309 305 298 285 286 275 263 258 252 243 241 247 242 249 247 244 241 237 240 241 240 239 239 239 236 232 227 231 223 222 214 218
2 261 277 312 283 312 180 262 254 311 312 318 324 327 323 319 310 304 303 299 286 279 271 272 252 252 250 236 243 243 251 250 245 246 243 239 241 243 243 243 241 236 231 223 227 214 209 209 212
276 265 256 255 283 215 255 261 262 310 313 313 317 321 321 316 311 305 299 293 291 284 266 264 258 250 246 240 237 242 247 249 249 246 250 249 247 245 243 244 242 235 228 218 216 213 211 216 220
254 230 248 267 262 281 240 270 265 254 291 302 315 345 338 332 333 318 302 292 281 281 276 264 259 255 238 233 234 235 237 242 245 251 246 254 249 247 247 244 243 234 227 218 216 222 224 222 215
284 286 314 304 355 318 292 285 267 214 234 284 2 358 355 355 350 358 356 302 281 289 282 271 266 252 248 242 238 235 230 236 241 250 251 254 251 251 245 247 244 238 230 223 222 225 231 220 213
330 116 294 271 302 262 284 280 283 263 309 318 331 345 350 351 356 0 5 15 4 340 315 283 257 253 249 243 242 235 229 231 239 244 251 253 255 256 248 244 245 244 232 228 223 227 227 218 215
316 285 320 307 326 280 160 290 217 332 320 300 335 358 356 356 3 12 14 18 19 20 8 337 283 255 252 243 236 232 231 234 236 244 252 257 261 253 253 246 244 244 237 229 226 227 223 219 232
238 329 265 287 255 334 285 356 263 351 316 307 304 352 10 21 9 11 11 15 18 13 12 11 352 282 261 248 233 235 232 238 247 247 248 254 265 259 253 251 249 238 241 232 228 224 223 228 240
266 340 349 44 86 3 263 99 267 277 234 291 305 56 24 6 3 12 4 6 6 6 1 355 357 350 302 249 244 235 239 242 239 238 244 253 265 268 257 251 247 239 238 233 229 224 225 232 236
37 41 332 346 360 233 261 320 243 264 254 237 288 48 72 46 355 1 3 1 359 357 355 354 342 342 339 297 251 248 246 242 243 240 242 259 272 269 260 249 249 246 235 234 226 220 226 233 234
281 149 161 258 235 268 313 239 253 227 266 307 284 143 12 347 352 354 353 352 349 347 343 341 346 333 327 335 291 261 250 247 241 238 248 259 273 271 262 257 248 252 243 228 238 212 220 231 234
274 167 189 200 248 274 243 282 315 271 289 288 336 325 322 331 344 346 344 341 336 332 328 328 326 332 329 319 319 265 252 249 248 238 245 268 265 265 263 258 243 248 232 256 256 230 230 230 230
138 180 39 15 288 255 267 266 245 295 280 280 290 289 306 325 333 337 337 332 325 319 316 312 311 312 317 328 310 292 260 252 254 259 256 259 265 266 261 248 244 244 231 212 202 209 218 227 226
319 311 131 136 218 279 290 258 219 287 294 274 276 278 297 317 328 331 329 324 315 309 306 301 299 296 309 308 318 306 260 243 247 240 244 258 261 259 250 239 231 237 233 205 209 209 218 220 205
183 204 175 129 264 230 270 275 254 251 259 306 292 288 302 321 324 320 322 319 315 310 302 300 295 295 301 288 309 300 257 219 228 226 232 240 253 256 241 233 224 222 201 216 221 224 208 195 182
Wind_Speed_850mb
7 8 10 6 8 8 6 11 8 18 13 3 15 19 17 15 1 5 14 15 17 28 46 44 39 35 34 31 28 28 33 37 41 42 41 38 34 33 35 38 34 31 27 24 25 24 23 20 17
6 6 5 7 9 6 10 11 16 10 18 22 30 23 18 6 17 18 11 19 20 33 47 43 41 38 36 34 31 28 30 35 37 41 43 42 40 39 41 43 35 28 25 24 23 22 21 17 14
9 6 6 8 7 6 5 16 31 32 30 23 7 17 10 7 11 11 11 18 21 35 43 43 40 39 36 33 32 31 30 33 37 39 42 45 46 45 47 44 37 29 26 25 21 19 19 17 14
7 5 10 8 5 4 6 17 27 17 15 19 20 11 13 9 4 9 12 11 17 32 38 43 38 37 35 33 33 32 30 31 36 38 40 42 45 47 50 46 40 32 27 25 20 17 17 17 15
7 6 8 7 3 4 2 22 42 17 10 34 8 8 14 27 21 15 12 12 10 20 23 37 37 36 36 34 32 32 31 29 34 37 38 40 43 48 51 46 41 35 31 25 18 16 15 16 14
6 5 9 3 7 10 7 23 43 25 35 33 30 13 6 16 16 21 17 15 15 7 8 19 34 35 36 35 32 33 33 31 32 37 38 40 42 45 48 46 42 37 33 26 19 17 13 13 12
11 8 6 3 8 6 8 15 18 15 28 29 9 7 8 10 10 17 8 6 10 7 4 9 27 36 36 37 37 36 37 36 33 36 39 41 43 45 47 46 43 39 34 27 21 17 14 11 10
4 8 7 4 3 6 8 9 12 17 7 16 22 7 7 19 9 8 10 7 7 9 6 5 15 33 42 42 42 40 39 39 37 36 39 41 43 45 45 44 43 40 35 29 23 19 15 11 10
3 9 3 6 8 11 11 10 9 9 21 17 17 14 16 15 16 13 15 19 21 18 16 12 12 20 36 46 44 44 42 43 42 39 40 42 45 46 46 45 42 40 35 31 26 20 17 12 13
10 7 11 8 4 5 14 10 24 9 16 20 38 19 21 27 24 15 6 15 30 29 26 22 19 19 23 42 48 46 48 49 48 47 44 43 45 46 47 46 43 40 36 32 27 23 20 15 15
4 6 7 5 9 30 11 12 12 7 19 48 41 50 40 32 33 28 24 19 18 25 33 33 29 28 28 33 46 52 52 54 54 52 49 47 47 48 49 48 47 44 40 36 31 27 22 19 18
5 3 6 13 34 31 14 19 12 8 29 50 55 55 48 41 29 27 27 33 29 29 26 30 40 37 36 37 42 50 59 60 60 58 54 54 52 51 50 51 49 47 43 38 34 30 26 24 22
5 9 34 41 42 36 19 23 10 10 47 43 41 41 36 37 45 42 42 44 49 40 39 31 31 39 41 44 39 45 57 65 64 62 60 59 57 54 52 53 51 49 44 41 38 34 30 27 26
11 22 31 29 29 12 10 14 9 22 38 47 48 46 41 40 38 38 39 47 50 53 42 42 38 39 43 45 45 42 43 60 62 62 62 61 59 58 56 56 54 51 47 43 40 36 31 27 26
12 14 19 10 8 7 16 16 14 19 40 47 58 62 62 62 58 51 48 48 43 54 54 49 44 49 55 49 41 43 42 46 60 61 61 62 62 61 59 58 57 52 48 44 42 41 37 32 27
11 8 9 13 15 7 11 17 10 16 34 41 50 58 61 62 61 59 53 52 55 53 56 61 53 48 57 58 50 49 46 52 53 57 58 61 63 63 63 61 58 50 48 43 41 46 41 36 32
12 8 9 17 10 8 4 17 14 27 26 44 54 57 61 65 66 61 56 55 51 55 63 60 67 58 54 64 63 57 53 54 57 61 60 56 60 66 67 66 61 53 46 44 39 41 39 36 31
14 7 11 13 13 12 14 23 6 30 34 45 50 56 49 52 60 62 67 64 56 56 57 57 62 66 62 54 65 67 64 64 60 63 63 61 62 63 69 70 66 60 51 48 43 40 39 36 28
10 8 15 10 18 6 14 22 8 25 28 35 43 42 47 44 42 46 54 54 56 49 44 58 63 66 71 67 65 69 70 67 60 64 59 63 68 62 60 70 73 67 62 54 51 46 44 41 35
8 5 10 10 9 10 20 38 14 12 15 32 12 31 39 50 45 46 46 32 41 44 50 59 58 70 73 77 69 71 76 74 66 61 62 63 65 75 67 66 74 75 68 60 59 52 52 52 48
5 2 10 15 9 12 12 35 11 10 7 9 14 28 37 37 49 53 48 46 24 21 30 41 65 60 70 80 77 74 76 73 65 65 64 64 76 78 84 76 76 73 75 67 65 60 59 63 56
8 5 10 19 13 10 6 28 5 3 8 6 22 26 37 40 47 50 48 48 52 54 46 36 34 41 59 76 79 78 77 77 75 68 67 64 64 78 86 87 84 84 78 75 73 63 65 64 60
11 10 11 19 10 6 10 5 11 7 5 10 16 13 29 35 38 46 52 56 54 50 52 51 37 27 42 71 84 81 82 77 72 72 66 57 59 67 76 88 84 83 78 83 74 73 73 72 62
11 9 12 9 5 3 5 7 11 8 8 9 8 20 15 27 34 36 41 47 49 51 47 45 46 42 30 50 79 89 85 79 80 78 66 61 64 67 76 74 88 85 88 92 82 78 73 72 61
19 13 9 11 8 9 7 8 18 13 15 11 8 13 10 13 29 43 53 59 55 55 58 57 54 47 45 37 46 72 95 81 71 78 70 59 61 70 67 69 72 78 92 93 96 78 71 68 63
4 11 9 10 6 11 10 12 12 16 14 13 10 6 5 22 31 40 51 61 67 66 58 59 62 53 54 56 39 49 73 94 75 68 62 64 55 57 56 53 65 66 80 87 54 64 59 69 64
5 1 6 3 4 7 9 13 16 11 17 17 23 11 19 23 38 50 64 71 77 82 82 72 68 60 47 52 48 45 58 78 80 70 70 47 42 47 50 53 59 54 70 67 60 65 66 65 61
6 7 1 4 7 9 9 11 15 13 17 17 14 19 27 36 49 61 70 87 105 102 92 85 71 63 51 47 47 36 40 61 58 48 32 35 43 44 45 46 52 54 66 69 69 90 86 74 64
5 4 3 5 7 6 8 12 10 23 25 14 18 26 29 44 55 64 83 111 114 109 100 79 68 53 48 34 47 42 38 35 51 38 34 35 39 37 38 40 44 43 51 67 81 77 77 82 70
12 15 11 8 11 10 11 28 23 18 7 17 39 38 41 52 61 69 102 102 88 88 82 67 50 45 43 30 34 34 21 21 36 47 35 26 29 33 34 34 34 38 54 61 74 72 75 70 67
Wind_Direction_850mb
344 310 333 22 61 60 282 273 322 344 354 300 85 122 129 54 9 195 140 155 149 163 172 172 174 172 176 174 166 158 164 171 173 175 175 175 174 169 169 169 165 160 156 149 142 136 133 137 132
17 18 34 66 81 62 284 310 328 275 327 107 80 80 64 64 93 115 121 121 153 167 176 176 176 177 179 177 174 170 167 171 175 177 179 180 179 177 176 174 171 164 157 150 147 141 139 146 148
23 44 55 84 104 139 313 329 308 290 315 281 91 74 84 96 82 139 126 127 133 170 179 178 179 182 183 179 178 178 175 175 178 180 180 180 180 179 178 177 175 169 163 161 155 153 152 158 175
10 54 63 80 117 225 13 314 326 308 39 19 105 58 70 88 32 145 104 128 133 167 180 181 184 185 188 186 183 182 181 180 181 183 182 182 180 178 179 181 179 173 166 163 164 166 166 171 187
54 64 62 73 296 282 280 358 9 1 61 38 80 39 83 91 78 60 54 95 144 164 180 188 187 189 193 195 191 189 187 184 184 184 185 185 183 182 184 186 185 180 174 176 174 177 178 176 192
69 74 62 78 319 288 309 19 17 12 14 37 65 67 65 109 73 54 38 79 135 140 161 197 201 197 199 201 203 198 194 192 188 188 189 191 190 189 191 193 192 189 191 192 192 196 191 184 193
105 77 152 138 332 12 325 15 25 350 13 3 41 81 112 97 26 7 11 71 134 137 162 201 211 213 209 208 208 209 203 198 196 192 193 196 198 197 199 199 198 199 201 203 206 206 205 189 195
76 87 45 2 47 291 330 9 19 16 0 12 27 16 31 17 338 269 234 219 227 195 194 232 222 225 223 217 213 212 211 205 203 201 199 200 203 205 204 205 204 206 207 210 212 214 214 199 201
126 60 38 310 28 275 301 352 4 344 342 339 346 332 342 4 353 5 232 222 219 229 224 232 241 236 234 225 221 217 214 213 209 208 206 205 208 208 208 209 209 210 210 211 213 220 217 209 212
71 96 216 224 276 330 327 330 322 338 316 320 329 335 338 326 326 330 335 257 241 236 244 236 244 248 239 229 226 225 222 217 214 212 211 211 212 213 213 213 213 213 213 214 219 222 218 212 213
1 136 210 300 21 346 311 303 313 328 320 314 311 312 313 314 316 301 300 292 285 264 254 268 251 249 241 237 232 232 230 225 220 217 216 216 217 216 216 217 216 215 215 217 223 225 223 210 210
20 9 65 313 329 338 320 312 291 248 298 320 313 306 298 291 311 310 302 299 298 280 281 269 256 249 245 243 239 241 236 232 226 222 219 219 220 220 221 222 222 223 222 223 227 226 224 214 210
52 323 325 324 323 323 328 336 315 324 359 349 346 342 319 300 303 294 288 288 291 285 277 275 249 251 250 248 249 252 247 235 230 227 225 223 223 226 226 227 226 228 227 228 229 228 226 222 220
313 303 299 311 319 315 13 316 21 324 0 353 353 348 340 333 329 319 303 290 288 271 283 280 245 243 254 251 252 253 258 240 235 232 232 230 228 230 232 232 230 230 230 230 229 229 228 231 227
315 326 335 3 9 301 357 330 320 332 343 339 338 333 329 321 318 311 305 304 296 270 272 270 264 242 239 247 246 250 252 246 237 236 237 236 234 234 233 237 235 234 233 232 230 225 222 217 214
360 47 4 294 330 320 66 277 263 322 330 320 331 330 322 319 314 309 305 298 285 286 275 263 258 252 243 241 247 242 249 247 244 241 237 240 241 240 239 239 239 236 232 227 231 223 222 214 218
2 261 277 312 283 312 180 262 254 311 312 318 324 327 323 319 310 304 303 299 286 279 271 272 252 252 250 236 243 243 251 250 245 246 243 239 241 243 243 243 241 236 231 223 227 214 209 209 212
276 265 256 255 283 215 255 261 262 310 313 313 317 321 321 316 311 305 299 293 291 284 266 264 258 250 246 240 237 242 247 249 249 246 250 249 247 245 243 244 242 235 228 218 216 213 211 216 220
254 230 248 267 262 281 240 270 265 254 291 302 315 345 338 332 333 318 302 292 281 281 276 264 259 255 238 233 234 235 237 242 245 251 246 254 249 247 247 244 243 234 227 218 216 222 224 222 215
284 286 314 304 355 318 292 285 267 214 234 284 2 358 355 355 350 358 356 302 281 289 282 271 266 252 248 242 238 235 230 236 241 250 251 254 251 251 245 247 244 238 230 223 222 225 231 220 213
330 116 294 271 302 262 284 280 283 263 309 318 331 345 350 351 356 0 5 15 4 340 315 283 257 253 249 243 242 235 229 231 239 244 251 253 255 256 248 244 245 244 232 228 223 227 227 218 215
316 285 320 307 326 280 160 290 217 332 320 300 335 358 356 356 3 12 14 18 19 20 8 337 283 255 252 243 236 232 231 234 236 244 252 257 261 253 253 246 244 244 237 229 226 227 223 219 232
238 329 265 287 255 334 285 356 263 351 316 307 304 352 10 21 9 11 11 15 18 13 12 11 352 282 261 248 233 235 232 238 247 247 248 254 265 259 253 251 249 238 241 232 228 224 223 228 240
266 340 349 44 86 3 263 99 267 277 234 291 305 56 24 6 3 12 4 6 6 6 1 355 357 350 302 249 244 235 239 242 239 238 244 253 265 268 257 251 247 239 238 233 229 224 225 232 236
37 41 332 346 360 233 261 320 243 264 254 237 288 48 72 46 355 1 3 1 359 357 355 354 342 342 339 297 251 248 246 242 243 240 242 259 272 269 260 249 249 246 235 234 226 220 226 233 234
281 149 161 258 235 268 313 239 253 227 266 307 284 143 12 347 352 354 353 352 349 347 343 341 346 333 327 335 291 261 250 247 241 238 248 259 273 271 262 257 248 252 243 228 238 212 220 231 234
274 167 189 200 248 274 243 282 315 271 289 288 336 325 322 331 344 346 344 341 336 332 328 328 326 332 329 319 319 265 252 249 248 238 245 268 265 265 263 258 243 248 232 256 256 230 230 230 230
138 180 39 15 288 255 267 266 245 295 280 280 290 289 306 325 333 337 337 332 325 319 316 312 311 312 317 328 310 292 260 252 254 259 256 259 265 266 261 248 244 244 231 212 202 209 218 227 226
319 311 131 136 218 279 290 258 219 287 294 274 276 278 297 317 328 331 329 324 315 309 306 301 299 296 309 308 318 306 260 243 247 240 244 258 261 259 250 239 231 237 233 205 209 209 218 220 205
183 204 175 129 264 230 270 275 254 251 259 306 292 288 302 321 324 320 322 319 315 310 302 300 295 295 301 288 309 300 257 219 228 226 232 240 253 256 241 233 224 222 201 216 221 224 208 195 182